SCP
-0 -0 -0 0 -0 0 0 0 0 0 1 1 1 1 1 1 1 0 1 1 1 0 0 0 0 0 0 0 0 0 0 0 0 0 0 0 0 0 0 0 0 0 0
0 -0 0 0 0 0 0 0 0 0 1 1 1 2 2 1 1 1 1 1 1 1 0 0 0 0 0 0 0 0 0 0 0 0 0 0 0 0 0 0 0 0 0
-0 0 0 0 0 0 0 0 0 0 1 2 1 0 0 0 0 0 1 1 1 1 1 0 0 0 0 0 0 0 0 0 0 0 0 0 0 0 0 0 0 0 0
-0 -0 -0 -0 0 0 0 0 0 0 2 3 1 1 1 2 1 1 0 0 1 2 1 1 0 0 0 0 0 0 0 0 0 0 0 0 0 0 0 0 0 0 0
-0 -0 -0 -0 0 0 0 0 0 0 1 2 2 1 0 0 0 1 1 1 2 2 2 1 1 1 0 0 0 0 0 0 0 0 0 0 0 0 0 0 0 0 0
0 0 -0 -0 -0 -0 0 0 0 0 0 1 1 1 1 0 0 0 1 1 2 2 2 1 1 1 1 1 0 0 0 0 0 0 0 0 0 0 0 0 0 0 0
0 0 0 -0 -0 -0 -0 0 0 0 0 0 0 0 0 0 0 0 1 2 2 2 2 1 1 1 1 1 1 0 0 0 0 0 0 0 0 0 0 0 0 0 0
0 -0 0 0 0 -0 -0 0 0 0 0 0 0 0 0 0 0 0 1 1 2 2 2 2 2 1 1 1 1 0 0 0 0 0 0 0 0 0 0 0 0 0 0
-0 -0 -0 0 0 0 -0 -0 0 0 0 0 0 0 0 0 0 0 1 2 2 2 2 2 1 1 1 1 0 0 0 0 0 0 0 0 0 0 0 0 0 0 0
0 0 0 0 0 0 0 0 0 0 0 0 0 0 0 0 0 1 1 2 1 2 2 1 1 1 0 0 0 0 0 0 0 0 0 0 0 0 0 0 0 0 0
-0 0 0 0 0 0 0 0 -0 0 0 0 0 0 0 0 0 1 2 2 2 2 1 1 1 0 0 0 0 0 0 0 0 0 0 0 0 0 0 0 0 0 0
-0 0 0 0 0 0 0 0 0 0 0 0 0 1 1 1 1 1 2 1 2 1 1 1 0 0 0 0 0 0 0 0 0 0 0 0 0 0 0 0 0 0 0
0 0 0 0 0 0 0 0 0 0 0 0 0 1 1 2 2 2 2 1 1 1 1 1 0 0 0 0 0 0 0 0 0 0 0 0 0 0 0 0 0 0 0
0 0 0 0 0 0 1 3 0 0 1 2 2 2 3 3 2 2 1 1 1 1 0 0 0 0 0 0 0 0 0 0 0 0 0 0 0 0 0 0 0 0 0
-0 0 0 0 0 0 0 0 1 3 3 4 4 3 3 2 2 1 1 1 0 0 0 0 0 0 0 0 0 0 0 0 0 0 0 0 0 0 0 0 0 0 0
-0 -0 0 0 0 0 0 0 1 3 3 4 3 3 2 1 1 1 0 0 0 0 0 0 0 0 0 0 0 0 0 0 0 0 0 0 0 0 0 0 0 0 0
-0 0 0 0 0 0 0 0 0 2 3 3 3 2 2 1 1 0 0 0 0 0 0 0 0 0 0 0 0 0 0 0 0 0 0 0 0 0 0 0 0 0 0
0 0 0 0 0 0 0 0 0 2 2 2 2 1 1 1 0 0 0 0 0 0 0 0 0 0 0 0 0 0 0 0 0 0 0 0 0 0 0 0 0 0 0
-0 -0 0 0 0 0 0 0 0 0 1 1 1 1 1 0 0 0 0 0 0 0 0 0 0 0 0 0 0 0 0 0 0 0 0 0 0 -0 -0 -0 0 -0 0
-0 -0 0 0 0 0 0 0 0 0 0 1 1 1 0 0 0 0 0 0 0 0 0 0 0 0 0 0 0 0 0 0 0 0 0 0 0 -0 -0 0 -0 -0 0
-0 0 0 0 0 0 0 0 0 0 0 0 0 0 0 0 0 0 0 0 0 0 0 0 0 0 0 0 0 0 0 0 0 0 0 0 0 -0 0 0 0 0 -0
0 0 0 0 0 0 0 -0 0 0 0 0 0 0 0 0 0 0 0 0 0 0 0 0 0 0 0 0 0 0 0 0 0 0 0 0 0 -0 -0 -0 -0 -0 -0
0 0 0 0 0 0 0 0 0 0 0 0 0 0 0 0 0 0 0 0 0 0 0 0 0 0 0 0 0 0 0 0 0 0 0 -0 0 -0 -0 -0 -0 -0 0
0 0 0 0 0 0 0 0 0 -0 0 0 0 0 0 0 0 0 0 0 0 0 0 0 0 0 0 0 0 0 0 0 0 0 -0 0 0 0 -0 0 0 0 0
0 0 0 0 0 0 0 0 0 0 0 0 0 0 0 0 0 0 0 0 0 0 0 0 0 0 0 0 0 0 0 0 0 0 0 0 0 0 0 0 0 0 0
0 0 0 0 0 0 0 0 0 0 0 0 0 0 0 0 0 0 0 0 0 0 0 -0 -0 0 0 -0 0 0 0 0 -0 0 0 0 0 0 0 0 0 0 0
Wind_Speed_500mb
78 58 59 51 44 45 50 56 50 69 77 78 85 76 62 65 63 60 60 59 56 57 57 56 54 43 44 43 45 41 36 36 33 36 37 36 37 36 37 40 43 50 52
69 79 62 61 52 48 51 63 63 56 78 80 86 89 86 82 76 61 65 55 57 58 59 58 46 38 37 45 46 43 39 35 40 40 35 36 34 35 35 41 42 36 35
63 74 81 77 69 57 55 57 64 69 68 78 105 99 92 88 81 72 65 64 59 55 56 50 38 34 36 44 44 43 40 40 39 39 32 17 17 15 18 18 20 29 35
53 59 69 76 77 73 62 61 60 64 70 69 84 110 105 97 87 71 68 59 53 53 49 43 35 32 36 40 41 40 41 41 39 37 39 38 36 27 16 18 26 30 32
58 68 70 77 80 78 76 69 64 61 69 74 72 100 109 106 90 79 58 50 51 53 49 38 35 34 37 39 39 42 39 38 38 37 41 38 38 39 35 36 31 24 23
64 74 76 81 83 81 84 76 67 66 65 81 74 95 111 112 97 69 59 55 55 52 47 38 38 34 37 38 42 37 37 34 30 31 36 36 34 36 30 31 31 27 23
56 69 77 79 81 85 86 86 78 70 63 84 87 85 113 114 98 76 64 58 52 51 49 39 37 37 36 35 34 40 36 34 32 31 28 28 31 32 28 26 24 26 23
67 71 84 79 80 82 83 87 85 76 70 78 90 80 99 115 90 72 61 50 49 47 43 36 34 33 30 32 36 36 34 33 30 30 28 26 29 29 29 26 25 26 25
80 82 87 85 72 75 80 83 87 85 72 71 91 80 85 100 82 69 58 52 48 45 42 35 39 32 32 34 39 35 38 38 29 28 26 27 28 25 22 23 23 23 17
84 101 100 85 61 82 78 80 88 90 72 72 86 80 84 89 74 64 62 56 50 45 39 47 41 33 35 40 40 37 35 32 30 27 25 23 21 22 23 23 21 22 22
83 92 100 75 65 85 71 70 89 85 75 75 83 82 87 85 75 66 61 57 53 43 42 51 45 40 41 42 39 37 33 30 27 24 22 19 20 22 22 24 25 21 22
87 93 80 53 78 77 73 45 72 85 80 80 87 96 94 84 71 66 55 55 55 43 45 54 47 42 46 42 38 30 27 26 25 20 19 20 20 20 22 24 24 26 23
103 60 42 61 70 81 66 28 47 76 77 77 91 96 83 78 67 56 54 55 54 44 52 56 51 50 50 40 30 21 25 21 23 18 15 17 21 19 20 21 23 27 26
44 58 79 85 81 69 58 27 29 40 67 84 90 83 70 63 56 50 50 51 47 53 61 56 52 47 42 35 26 26 28 24 23 16 15 17 20 20 19 19 20 24 27
46 66 92 91 79 56 53 26 28 35 45 56 64 65 63 54 49 49 47 46 51 58 62 58 50 43 35 29 30 30 29 27 21 17 16 19 22 22 21 21 23 25 30
61 47 65 68 81 54 56 27 20 36 49 58 67 64 57 53 50 50 47 50 52 59 61 56 46 40 32 32 26 23 24 25 20 14 18 21 23 23 19 26 29 28 31
63 64 60 71 76 71 47 25 18 30 45 66 64 61 55 54 56 54 56 51 58 63 58 49 42 38 35 36 26 22 18 19 19 18 21 23 24 23 24 23 22 27 26
63 67 62 66 65 68 58 21 15 28 43 57 58 58 59 61 61 59 53 60 64 59 54 44 41 38 41 36 30 28 27 25 23 24 23 23 26 25 24 23 26 15 28
56 58 57 56 60 59 55 24 21 27 30 52 58 66 70 70 65 54 60 59 61 56 49 42 41 40 34 34 33 29 30 28 28 24 23 26 25 26 20 24 28 25 24
54 57 65 52 49 52 52 37 20 9 16 49 61 69 69 66 59 64 62 60 54 50 46 45 36 36 35 36 32 29 28 29 28 23 24 23 22 20 21 24 25 32 33
61 65 63 53 46 53 56 39 23 30 13 36 64 67 64 57 63 62 61 57 53 47 45 43 37 34 32 30 29 25 23 21 21 22 20 15 13 14 17 14 14 22 23
68 60 62 52 46 46 53 22 19 26 45 51 78 72 63 61 65 61 57 51 53 51 48 42 40 36 31 28 25 21 19 19 18 19 17 13 18 18 20 18 15 14 16
60 63 61 53 40 40 36 13 31 36 31 31 74 64 57 61 61 59 55 52 51 49 48 43 39 35 30 27 24 23 23 17 17 17 17 18 22 24 25 20 16 12 14
61 58 55 47 40 35 28 5 49 73 41 41 65 63 61 63 60 54 50 49 49 46 46 45 40 34 29 28 25 26 24 20 19 17 17 22 27 27 23 21 18 12 5
58 55 43 40 35 35 25 9 28 19 10 62 63 65 61 59 59 55 50 43 40 37 42 41 37 31 24 18 22 21 21 20 20 17 18 29 32 30 28 23 20 14 2
52 49 35 33 26 33 21 11 14 8 27 57 66 68 58 57 57 54 47 40 35 30 23 25 26 22 13 19 27 24 20 16 19 18 20 33 37 31 35 29 21 13 4
Wind_Direction_500mb
315 320 319 316 322 310 269 254 259 251 243 236 226 230 234 236 241 249 254 251 259 267 275 281 280 281 275 276 266 262 261 254 256 264 271 272 268 266 264 270 278 283 286
316 321 328 316 307 310 297 267 256 244 243 233 226 228 239 234 240 248 250 249 256 263 273 278 276 276 274 268 257 252 254 249 249 257 265 264 269 269 269 272 281 278 276
306 307 308 308 306 298 302 290 274 259 249 242 234 237 230 232 234 242 241 242 249 262 275 268 270 278 270 264 255 252 250 244 245 251 246 259 261 279 273 270 280 279 275
309 314 311 307 301 292 290 295 285 273 259 252 243 239 232 232 236 242 242 240 251 267 267 262 263 270 266 261 253 251 249 240 242 243 247 252 263 270 280 282 288 292 280
308 306 304 300 294 289 288 289 292 279 264 242 241 234 233 234 240 243 237 242 257 264 259 257 256 262 265 253 248 251 239 238 240 245 249 253 259 263 264 279 292 294 287
310 305 302 297 293 286 281 277 283 283 258 243 240 235 237 238 236 239 237 247 255 258 252 250 249 261 260 251 250 231 232 242 238 246 249 253 258 260 263 269 283 286 292
317 315 311 304 292 291 283 276 276 274 264 249 247 242 235 239 234 237 243 248 251 252 247 243 246 259 258 247 221 225 229 228 233 250 255 255 254 258 261 267 266 276 286
314 313 315 302 298 288 281 273 270 270 267 247 249 247 233 235 228 237 245 251 251 247 246 240 244 248 250 230 218 224 222 232 233 240 252 250 254 257 262 258 264 268 269
319 311 309 297 298 295 282 270 266 267 265 245 244 238 230 225 227 240 243 248 244 243 237 231 231 235 230 216 218 226 219 223 230 248 249 253 255 252 242 248 259 255 260
315 309 305 298 298 310 284 268 257 260 257 242 239 228 224 227 232 243 243 243 236 237 230 224 225 227 216 209 213 216 218 225 241 247 246 244 243 239 240 239 242 242 248
311 304 301 294 308 316 305 262 248 251 245 233 235 224 222 230 236 241 242 238 234 231 224 223 221 217 202 209 211 217 217 235 237 232 235 239 240 236 233 234 237 242 240
315 305 298 294 322 326 311 272 240 245 238 232 232 222 225 228 237 237 234 231 227 226 225 218 215 208 202 207 210 210 235 229 221 218 232 231 236 236 225 231 239 235 243
316 314 312 336 347 327 323 275 249 238 231 229 227 224 227 234 232 227 227 221 220 227 215 207 205 199 199 199 202 226 224 216 210 222 232 227 235 230 229 233 235 232 238
312 338 343 345 331 336 344 284 230 220 222 221 223 223 217 216 213 217 214 218 222 210 202 200 197 196 189 193 211 216 218 209 208 220 235 236 233 234 239 243 237 230 231
343 353 348 325 321 358 353 314 218 213 201 196 194 198 200 203 206 209 209 201 201 201 196 189 189 185 190 203 208 221 228 208 210 224 243 237 231 234 238 244 248 241 234
329 340 301 310 353 354 353 353 207 210 210 196 192 190 192 198 200 186 183 191 189 188 182 181 182 183 193 193 189 180 178 200 220 252 251 242 227 231 244 269 253 240 229
320 314 310 332 350 343 349 349 341 209 209 199 190 190 194 188 177 176 186 189 179 173 174 176 179 185 187 187 184 193 206 219 231 253 255 232 230 236 268 260 232 233 202
312 315 324 336 341 342 349 6 322 188 200 191 195 192 183 178 172 175 182 171 168 172 173 175 179 186 189 193 196 202 215 217 234 252 240 234 234 257 269 242 223 221 206
310 314 315 328 334 343 355 350 339 197 210 212 199 188 180 171 168 173 171 168 170 172 173 177 184 193 194 204 207 214 212 226 238 240 238 235 245 269 250 219 213 210 202
319 315 325 330 335 346 344 329 318 248 190 219 205 189 173 167 169 168 169 170 169 168 171 177 183 195 202 201 210 219 228 231 235 229 230 234 255 254 231 204 209 204 194
324 326 328 326 332 346 344 325 266 231 270 193 198 174 163 169 165 166 166 166 167 170 176 181 184 195 203 211 218 218 224 225 220 216 226 239 231 195 189 163 155 180 184
321 323 329 332 335 347 351 324 258 224 231 306 172 163 162 165 165 161 163 169 171 174 180 186 192 196 198 197 205 203 200 199 206 217 219 217 185 168 161 162 158 184 199
311 318 326 329 335 351 345 18 154 155 224 269 162 153 157 163 163 162 169 173 179 184 187 193 196 193 191 195 191 186 185 191 201 201 200 197 179 167 167 170 171 181 206
303 314 317 323 323 348 343 269 200 228 271 180 153 153 162 165 167 171 176 179 182 189 196 195 196 193 195 195 192 189 192 191 187 185 187 184 170 172 180 175 173 193 245
303 307 304 307 318 336 334 179 197 237 223 172 163 164 162 166 169 176 181 186 192 199 199 198 194 189 189 202 195 192 189 189 189 190 185 178 177 179 190 181 176 189 227
287 291 294 302 319 325 325 210 174 325 177 178 171 166 167 176 177 178 177 179 179 180 189 191 184 173 179 187 181 174 173 187 193 207 202 185 187 186 200 188 175 182 178
Wind_Speed_850mb
78 58 59 51 44 45 50 56 50 69 77 78 85 76 62 65 63 60 60 59 56 57 57 56 54 43 44 43 45 41 36 36 33 36 37 36 37 36 37 40 43 50 52
69 79 62 61 52 48 51 63 63 56 78 80 86 89 86 82 76 61 65 55 57 58 59 58 46 38 37 45 46 43 39 35 40 40 35 36 34 35 35 41 42 36 35
63 74 81 77 69 57 55 57 64 69 68 78 105 99 92 88 81 72 65 64 59 55 56 50 38 34 36 44 44 43 40 40 39 39 32 17 17 15 18 18 20 29 35
53 59 69 76 77 73 62 61 60 64 70 69 84 110 105 97 87 71 68 59 53 53 49 43 35 32 36 40 41 40 41 41 39 37 39 38 36 27 16 18 26 30 32
58 68 70 77 80 78 76 69 64 61 69 74 72 100 109 106 90 79 58 50 51 53 49 38 35 34 37 39 39 42 39 38 38 37 41 38 38 39 35 36 31 24 23
64 74 76 81 83 81 84 76 67 66 65 81 74 95 111 112 97 69 59 55 55 52 47 38 38 34 37 38 42 37 37 34 30 31 36 36 34 36 30 31 31 27 23
56 69 77 79 81 85 86 86 78 70 63 84 87 85 113 114 98 76 64 58 52 51 49 39 37 37 36 35 34 40 36 34 32 31 28 28 31 32 28 26 24 26 23
67 71 84 79 80 82 83 87 85 76 70 78 90 80 99 115 90 72 61 50 49 47 43 36 34 33 30 32 36 36 34 33 30 30 28 26 29 29 29 26 25 26 25
80 82 87 85 72 75 80 83 87 85 72 71 91 80 85 100 82 69 58 52 48 45 42 35 39 32 32 34 39 35 38 38 29 28 26 27 28 25 22 23 23 23 17
84 101 100 85 61 82 78 80 88 90 72 72 86 80 84 89 74 64 62 56 50 45 39 47 41 33 35 40 40 37 35 32 30 27 25 23 21 22 23 23 21 22 22
83 92 100 75 65 85 71 70 89 85 75 75 83 82 87 85 75 66 61 57 53 43 42 51 45 40 41 42 39 37 33 30 27 24 22 19 20 22 22 24 25 21 22
87 93 80 53 78 77 73 45 72 85 80 80 87 96 94 84 71 66 55 55 55 43 45 54 47 42 46 42 38 30 27 26 25 20 19 20 20 20 22 24 24 26 23
103 60 42 61 70 81 66 28 47 76 77 77 91 96 83 78 67 56 54 55 54 44 52 56 51 50 50 40 30 21 25 21 23 18 15 17 21 19 20 21 23 27 26
44 58 79 85 81 69 58 27 29 40 67 84 90 83 70 63 56 50 50 51 47 53 61 56 52 47 42 35 26 26 28 24 23 16 15 17 20 20 19 19 20 24 27
46 66 92 91 79 56 53 26 28 35 45 56 64 65 63 54 49 49 47 46 51 58 62 58 50 43 35 29 30 30 29 27 21 17 16 19 22 22 21 21 23 25 30
61 47 65 68 81 54 56 27 20 36 49 58 67 64 57 53 50 50 47 50 52 59 61 56 46 40 32 32 26 23 24 25 20 14 18 21 23 23 19 26 29 28 31
63 64 60 71 76 71 47 25 18 30 45 66 64 61 55 54 56 54 56 51 58 63 58 49 42 38 35 36 26 22 18 19 19 18 21 23 24 23 24 23 22 27 26
63 67 62 66 65 68 58 21 15 28 43 57 58 58 59 61 61 59 53 60 64 59 54 44 41 38 41 36 30 28 27 25 23 24 23 23 26 25 24 23 26 15 28
56 58 57 56 60 59 55 24 21 27 30 52 58 66 70 70 65 54 60 59 61 56 49 42 41 40 34 34 33 29 30 28 28 24 23 26 25 26 20 24 28 25 24
54 57 65 52 49 52 52 37 20 9 16 49 61 69 69 66 59 64 62 60 54 50 46 45 36 36 35 36 32 29 28 29 28 23 24 23 22 20 21 24 25 32 33
61 65 63 53 46 53 56 39 23 30 13 36 64 67 64 57 63 62 61 57 53 47 45 43 37 34 32 30 29 25 23 21 21 22 20 15 13 14 17 14 14 22 23
68 60 62 52 46 46 53 22 19 26 45 51 78 72 63 61 65 61 57 51 53 51 48 42 40 36 31 28 25 21 19 19 18 19 17 13 18 18 20 18 15 14 16
60 63 61 53 40 40 36 13 31 36 31 31 74 64 57 61 61 59 55 52 51 49 48 43 39 35 30 27 24 23 23 17 17 17 17 18 22 24 25 20 16 12 14
61 58 55 47 40 35 28 5 49 73 41 41 65 63 61 63 60 54 50 49 49 46 46 45 40 34 29 28 25 26 24 20 19 17 17 22 27 27 23 21 18 12 5
58 55 43 40 35 35 25 9 28 19 10 62 63 65 61 59 59 55 50 43 40 37 42 41 37 31 24 18 22 21 21 20 20 17 18 29 32 30 28 23 20 14 2
52 49 35 33 26 33 21 11 14 8 27 57 66 68 58 57 57 54 47 40 35 30 23 25 26 22 13 19 27 24 20 16 19 18 20 33 37 31 35 29 21 13 4
Wind_Direction_850mb
315 320 319 316 322 310 269 254 259 251 243 236 226 230 234 236 241 249 254 251 259 267 275 281 280 281 275 276 266 262 261 254 256 264 271 272 268 266 264 270 278 283 286
316 321 328 316 307 310 297 267 256 244 243 233 226 228 239 234 240 248 250 249 256 263 273 278 276 276 274 268 257 252 254 249 249 257 265 264 269 269 269 272 281 278 276
306 307 308 308 306 298 302 290 274 259 249 242 234 237 230 232 234 242 241 242 249 262 275 268 270 278 270 264 255 252 250 244 245 251 246 259 261 279 273 270 280 279 275
309 314 311 307 301 292 290 295 285 273 259 252 243 239 232 232 236 242 242 240 251 267 267 262 263 270 266 261 253 251 249 240 242 243 247 252 263 270 280 282 288 292 280
308 306 304 300 294 289 288 289 292 279 264 242 241 234 233 234 240 243 237 242 257 264 259 257 256 262 265 253 248 251 239 238 240 245 249 253 259 263 264 279 292 294 287
310 305 302 297 293 286 281 277 283 283 258 243 240 235 237 238 236 239 237 247 255 258 252 250 249 261 260 251 250 231 232 242 238 246 249 253 258 260 263 269 283 286 292
317 315 311 304 292 291 283 276 276 274 264 249 247 242 235 239 234 237 243 248 251 252 247 243 246 259 258 247 221 225 229 228 233 250 255 255 254 258 261 267 266 276 286
314 313 315 302 298 288 281 273 270 270 267 247 249 247 233 235 228 237 245 251 251 247 246 240 244 248 250 230 218 224 222 232 233 240 252 250 254 257 262 258 264 268 269
319 311 309 297 298 295 282 270 266 267 265 245 244 238 230 225 227 240 243 248 244 243 237 231 231 235 230 216 218 226 219 223 230 248 249 253 255 252 242 248 259 255 260
315 309 305 298 298 310 284 268 257 260 257 242 239 228 224 227 232 243 243 243 236 237 230 224 225 227 216 209 213 216 218 225 241 247 246 244 243 239 240 239 242 242 248
311 304 301 294 308 316 305 262 248 251 245 233 235 224 222 230 236 241 242 238 234 231 224 223 221 217 202 209 211 217 217 235 237 232 235 239 240 236 233 234 237 242 240
315 305 298 294 322 326 311 272 240 245 238 232 232 222 225 228 237 237 234 231 227 226 225 218 215 208 202 207 210 210 235 229 221 218 232 231 236 236 225 231 239 235 243
316 314 312 336 347 327 323 275 249 238 231 229 227 224 227 234 232 227 227 221 220 227 215 207 205 199 199 199 202 226 224 216 210 222 232 227 235 230 229 233 235 232 238
312 338 343 345 331 336 344 284 230 220 222 221 223 223 217 216 213 217 214 218 222 210 202 200 197 196 189 193 211 216 218 209 208 220 235 236 233 234 239 243 237 230 231
343 353 348 325 321 358 353 314 218 213 201 196 194 198 200 203 206 209 209 201 201 201 196 189 189 185 190 203 208 221 228 208 210 224 243 237 231 234 238 244 248 241 234
329 340 301 310 353 354 353 353 207 210 210 196 192 190 192 198 200 186 183 191 189 188 182 181 182 183 193 193 189 180 178 200 220 252 251 242 227 231 244 269 253 240 229
320 314 310 332 350 343 349 349 341 209 209 199 190 190 194 188 177 176 186 189 179 173 174 176 179 185 187 187 184 193 206 219 231 253 255 232 230 236 268 260 232 233 202
312 315 324 336 341 342 349 6 322 188 200 191 195 192 183 178 172 175 182 171 168 172 173 175 179 186 189 193 196 202 215 217 234 252 240 234 234 257 269 242 223 221 206
310 314 315 328 334 343 355 350 339 197 210 212 199 188 180 171 168 173 171 168 170 172 173 177 184 193 194 204 207 214 212 226 238 240 238 235 245 269 250 219 213 210 202
319 315 325 330 335 346 344 329 318 248 190 219 205 189 173 167 169 168 169 170 169 168 171 177 183 195 202 201 210 219 228 231 235 229 230 234 255 254 231 204 209 204 194
324 326 328 326 332 346 344 325 266 231 270 193 198 174 163 169 165 166 166 166 167 170 176 181 184 195 203 211 218 218 224 225 220 216 226 239 231 195 189 163 155 180 184
321 323 329 332 335 347 351 324 258 224 231 306 172 163 162 165 165 161 163 169 171 174 180 186 192 196 198 197 205 203 200 199 206 217 219 217 185 168 161 162 158 184 199
311 318 326 329 335 351 345 18 154 155 224 269 162 153 157 163 163 162 169 173 179 184 187 193 196 193 191 195 191 186 185 191 201 201 200 197 179 167 167 170 171 181 206
303 314 317 323 323 348 343 269 200 228 271 180 153 153 162 165 167 171 176 179 182 189 196 195 196 193 195 195 192 189 192 191 187 185 187 184 170 172 180 175 173 193 245
303 307 304 307 318 336 334 179 197 237 223 172 163 164 162 166 169 176 181 186 192 199 199 198 194 189 189 202 195 192 189 189 189 190 185 178 177 179 190 181 176 189 227
287 291 294 302 319 325 325 210 174 325 177 178 171 166 167 176 177 178 177 179 179 180 189 191 184 173 179 187 181 174 173 187 193 207 202 185 187 186 200 188 175 182 178